Home   Weather   Rankweil   Past weeks

Flag for Austria Past Weather in Rankweil, Vorarlberg, Austria — Yesterday and Last 2 Weeks

Now
72 °F

Mild.


Feels Like: 77 °F
Forecast: 47 / 80 °F
Wind: 1 mph from North

Location: Feldkirch

Current Time: May 25, 2017 at 8:21:30 pm

Latest Report: May 25, 2017 at 7:00 pm


Visibility: N/A

Pressure: 30.06 "Hg

Humidity: 40%

Dew Point: 46 °F

Location of RankweilLocation

Past Weather in Rankweil — Graph

°F

Rankweil Temperature Yesterday

Maximum temperature yesterday: 72 °F (at 6:00 pm)
Minimum temperature yesterday: 61 °F (at 10:00 am)
Average temperature yesterday: 66 °F

High & Low Weather Summary for the Past Weeks

 TemperatureHumidityPressure
High79 °F (May 23, 3:00 pm)99% (May 20, 7:00 am)30.42 "Hg (May 20, 7:00 am)
Low41 °F (May 20, 6:00 am)25% (May 11, 2:00 pm)29.41 "Hg (May 11, 7:00 pm)
Average62 °F64%30.04 "Hg
* Reported May 10 8:00 pm — May 25 7:00 pm, Rankweil. Weather by CustomWeather, © 2017

Note: Actual official high and low records may vary slightly from our data, if they occured in-between our weather recording intervals... More about our weather records

Advertising

Rankweil Weather History for the Previous 24 Hours

Scroll right to see more
 ConditionsComfort  
Time TempWeatherWind HumidityBarometerVisibility
7:00 pm
Thu, May 25
72 °FMild.1 mph40%30.06 "HgN/A
6:00 pm72 °FMild.2 mph39%30.06 "HgN/A
5:00 pm74 °FMild.2 mph40%30.06 "HgN/A
4:00 pm72 °FMild.3 mph42%30.07 "HgN/A
3:00 pm73 °FMild.5 mph42%30.08 "HgN/A
2:00 pm73 °FMild.3 mph42%30.09 "HgN/A
1:00 pm72 °FMild.3 mph51%30.10 "HgN/A
12:00 pm71 °FMild.1 mph54%30.11 "HgN/A
11:00 am68 °FScattered clouds.1 mph60%30.13 "Hg19 mi
10:00 am66 °FMild.2 mph61%30.14 "HgN/A
9:00 am63 °FMild.2 mph70%30.15 "HgN/A
8:00 am58 °FCool.1 mph84%30.16 "HgN/A
7:00 am55 °FPassing clouds.No wind90%30.17 "Hg19 mi
6:00 am55 °FCool.1 mph90%30.18 "HgN/A
5:00 am56 °FCool.1 mph89%30.18 "HgN/A
4:00 am58 °FCool.No wind87%30.18 "HgN/A
3:00 am58 °FCool.No wind85%30.19 "HgN/A
2:00 am59 °FCool.1 mph82%30.19 "HgN/A
1:00 am59 °FCool.1 mph81%30.21 "HgN/A
12:00 am60 °FCool.1 mph80%30.21 "HgN/A
11:00 pm
Wed, May 24
61 °FFog.2 mph75%30.20 "HgN/A
10:00 pm66 °FMild.1 mph56%30.14 "HgN/A
9:00 pm67 °FMild.1 mph56%30.14 "HgN/A
8:00 pm69 °FMild.1 mph46%30.13 "HgN/A
Weather by CustomWeather, © 2017

See weather overviewHow to use our weather pages